| time (UTC) | temp F | wind direction | speed MPH | gust MPH | rain 1hr in | rain 24hr in | rain mn in | humidity % | barometer mb |
| 20260504023552 | 68 | 360 | 12.0 | 0.0 | 0.00 | 0.00 | 0.00 | 33 | 992.4 |
| 20260504023052 | 68 | 360 | 11.0 | 0.0 | 0.00 | 0.00 | 0.00 | 33 | 992.4 |
| 20260504022552 | 68 | 360 | 11.0 | 0.0 | 0.00 | 0.00 | 0.00 | 33 | 992.3 |
| 20260504022052 | 68 | 360 | 10.0 | 0.0 | 0.00 | 0.00 | 0.00 | 33 | 992.3 |
| 20260504021600 | 69 | 360 | 11.0 | 0.0 | 0.00 | 0.00 | 0.00 | 33 | 992.2 |
| 20260504021051 | 69 | 360 | 11.0 | 0.0 | 0.00 | 0.00 | 0.00 | 33 | 992.2 |
| 20260504020551 | 69 | 360 | 12.0 | 0.0 | 0.00 | 0.00 | 0.00 | 33 | 992.1 |
| 20260504020051 | 69 | 360 | 13.0 | 0.0 | 0.00 | 0.00 | 0.00 | 32 | 992.1 |
| 20260504015550 | 69 | 360 | 14.0 | 0.0 | 0.00 | 0.00 | 0.00 | 32 | 992.1 |
| 20260504015051 | 70 | 360 | 15.0 | 0.0 | 0.00 | 0.00 | 0.00 | 31 | 992.1 |
| 20260504014551 | 70 | 360 | 15.0 | 0.0 | 0.00 | 0.00 | 0.00 | 31 | 992.1 |
| 20260504014050 | 71 | 360 | 16.0 | 0.0 | 0.00 | 0.00 | 0.00 | 31 | 992.2 |
| 20260504013549 | 71 | 360 | 14.0 | 0.0 | 0.00 | 0.00 | 0.00 | 31 | 992.1 |
| 20260504013055 | 71 | 360 | 14.0 | 0.0 | 0.00 | 0.00 | 0.00 | 30 | 992.1 |
| 20260504012550 | 72 | 360 | 15.0 | 0.0 | 0.00 | 0.00 | 0.00 | 30 | 992.1 |
| 20260504012049 | 72 | 360 | 15.0 | 0.0 | 0.00 | 0.00 | 0.00 | 29 | 992.1 |
| 20260504011554 | 73 | 360 | 16.0 | 0.0 | 0.00 | 0.00 | 0.00 | 26 | 992.0 |
| 20260504011050 | 73 | 360 | 16.0 | 0.0 | 0.00 | 0.00 | 0.00 | 25 | 992.0 |
| 20260504010550 | 74 | 360 | 16.0 | 0.0 | 0.00 | 0.00 | 0.00 | 23 | 992.0 |
| 20260504010057 | 74 | 360 | 16.0 | 0.0 | 0.00 | 0.00 | 0.00 | 23 | 992.1 |
| 20260504005551 | 75 | 360 | 16.0 | 0.0 | 0.00 | 0.00 | 0.00 | 22 | 992.1 |
| 20260504005051 | 75 | 360 | 14.0 | 0.0 | 0.00 | 0.00 | 0.00 | 23 | 992.1 |
| 20260504004554 | 74 | 360 | 12.0 | 0.0 | 0.00 | 0.00 | 0.00 | 24 | 992.1 |
| 20260504004050 | 74 | 360 | 12.0 | 0.0 | 0.00 | 0.00 | 0.00 | 24 | 992.0 |
| 20260504003548 | 74 | 360 | 11.0 | 0.0 | 0.00 | 0.00 | 0.00 | 24 | 992.2 |
| 20260504003049 | 74 | 360 | 10.0 | 0.0 | 0.00 | 0.00 | 0.00 | 24 | 992.2 |
| 20260504002548 | 75 | 360 | 11.0 | 0.0 | 0.00 | 0.00 | 0.00 | 23 | 992.3 |
| 20260504002047 | 75 | 360 | 14.0 | 0.0 | 0.00 | 0.00 | 0.00 | 23 | 992.3 |
| 20260504001605 | 76 | 360 | 15.0 | 0.0 | 0.00 | 0.00 | 0.00 | 22 | 992.5 |
| 20260504001048 | 76 | 360 | 15.0 | 0.0 | 0.00 | 0.00 | 0.00 | 22 | 992.5 |
| 20260504000546 | 75 | 360 | 17.0 | 0.0 | 0.00 | 0.00 | 0.00 | 22 | 992.6 |
| 20260504000047 | 75 | 360 | 18.0 | 0.0 | 0.00 | 0.00 | 0.00 | 22 | 992.6 |
| 20260503235545 | 76 | 360 | 16.0 | 0.0 | 0.00 | 0.00 | 0.00 | 21 | 992.7 |
| 20260503235047 | 76 | 360 | 16.0 | 0.0 | 0.00 | 0.00 | 0.00 | 21 | 992.7 |
| 20260503234545 | 76 | 360 | 15.0 | 0.0 | 0.00 | 0.00 | 0.00 | 22 | 992.8 |
| 20260503234044 | 76 | 360 | 13.0 | 0.0 | 0.00 | 0.00 | 0.00 | 23 | 992.8 |
| 20260503233544 | 76 | 360 | 14.0 | 0.0 | 0.00 | 0.00 | 0.00 | 23 | 992.9 |
| 20260503233044 | 76 | 360 | 14.0 | 0.0 | 0.00 | 0.00 | 0.00 | 24 | 992.9 |
| 20260503232543 | 76 | 360 | 13.0 | 0.0 | 0.00 | 0.00 | 0.00 | 24 | 993.0 |
| 20260503232042 | 77 | 360 | 12.0 | 0.0 | 0.00 | 0.00 | 0.00 | 24 | 993.1 |
| 20260503231548 | 76 | 360 | 11.0 | 0.0 | 0.00 | 0.00 | 0.00 | 25 | 993.3 |
| 20260503231041 | 76 | 360 | 11.0 | 0.0 | 0.00 | 0.00 | 0.00 | 25 | 993.3 |
| 20260503230543 | 76 | 360 | 11.0 | 0.0 | 0.00 | 0.00 | 0.00 | 25 | 993.5 |
| 20260503230039 | 76 | 360 | 12.0 | 0.0 | 0.00 | 0.00 | 0.00 | 25 | 993.5 |
| 20260503225538 | 76 | 360 | 12.0 | 0.0 | 0.00 | 0.00 | 0.00 | 25 | 993.7 |
| 20260503225037 | 75 | 360 | 11.0 | 0.0 | 0.00 | 0.00 | 0.00 | 26 | 993.9 |
| 20260503224536 | 75 | 360 | 11.0 | 0.0 | 0.00 | 0.00 | 0.00 | 26 | 994.0 |
| 20260503224036 | 75 | 360 | 11.0 | 0.0 | 0.00 | 0.00 | 0.00 | 24 | 994.2 |
| 20260503223535 | 75 | 360 | 11.0 | 0.0 | 0.00 | 0.00 | 0.00 | 24 | 994.2 |
| 20260503223038 | 75 | 360 | 12.0 | 0.0 | 0.00 | 0.00 | 0.00 | 23 | 994.3 |
| 20260503222533 | 75 | 360 | 11.0 | 0.0 | 0.00 | 0.00 | 0.00 | 24 | 994.5 |
| 20260503222033 | 75 | 360 | 12.0 | 0.0 | 0.00 | 0.00 | 0.00 | 24 | 994.5 |
| 20260503221535 | 76 | 360 | 12.0 | 0.0 | 0.00 | 0.00 | 0.00 | 22 | 994.8 |
| 20260503221036 | 76 | 360 | 11.0 | 0.0 | 0.00 | 0.00 | 0.00 | 23 | 994.8 |
| 20260503220536 | 75 | 360 | 11.0 | 0.0 | 0.00 | 0.00 | 0.00 | 23 | 994.9 |
| 20260503220037 | 75 | 360 | 11.0 | 0.0 | 0.00 | 0.00 | 0.00 | 23 | 995.1 |
| 20260503215531 | 75 | 360 | 11.0 | 0.0 | 0.00 | 0.00 | 0.00 | 23 | 995.1 |
| 20260503215029 | 75 | 360 | 11.0 | 0.0 | 0.00 | 0.00 | 0.00 | 24 | 995.3 |
| 20260503214530 | 75 | 360 | 10.0 | 0.0 | 0.00 | 0.00 | 0.00 | 23 | 995.4 |
| 20260503214028 | 75 | 360 | 9.0 | 0.0 | 0.00 | 0.00 | 0.00 | 25 | 995.6 |
| 20260503213528 | 73 | 360 | 11.0 | 0.0 | 0.00 | 0.00 | 0.00 | 29 | 995.6 |
| 20260503213046 | 74 | 360 | 11.0 | 0.0 | 0.00 | 0.00 | 0.00 | 27 | 995.8 |
| 20260503212525 | 74 | 360 | 10.0 | 0.0 | 0.00 | 0.00 | 0.00 | 28 | 995.9 |
| 20260503212026 | 73 | 360 | 10.0 | 0.0 | 0.00 | 0.00 | 0.00 | 27 | 996.0 |
| 20260503211526 | 72 | 360 | 10.0 | 0.0 | 0.00 | 0.00 | 0.00 | 29 | 996.2 |
| 20260503211028 | 72 | 360 | 9.0 | 0.0 | 0.00 | 0.00 | 0.00 | 29 | 996.2 |
| 20260503210523 | 72 | 360 | 10.0 | 0.0 | 0.00 | 0.00 | 0.00 | 29 | 996.3 |
| 20260503210023 | 72 | 360 | 11.0 | 0.0 | 0.00 | 0.00 | 0.00 | 29 | 996.3 |
| 20260503205523 | 72 | 360 | 10.0 | 0.0 | 0.00 | 0.00 | 0.00 | 29 | 996.4 |
| 20260503205024 | 73 | 360 | 11.0 | 0.0 | 0.00 | 0.00 | 0.00 | 28 | 996.5 |
| 20260503204524 | 73 | 360 | 11.0 | 0.0 | 0.00 | 0.00 | 0.00 | 27 | 996.6 |
| 20260503204020 | 73 | 360 | 11.0 | 0.0 | 0.00 | 0.00 | 0.00 | 27 | 996.8 |
| 20260503203520 | 73 | 360 | 11.0 | 0.0 | 0.00 | 0.00 | 0.00 | 25 | 996.8 |
| 20260503203023 | 73 | 360 | 10.0 | 0.0 | 0.00 | 0.00 | 0.00 | 26 | 996.9 |
| 20260503202520 | 73 | 360 | 11.0 | 0.0 | 0.00 | 0.00 | 0.00 | 25 | 997.0 |
| 20260503202019 | 74 | 360 | 11.0 | 0.0 | 0.00 | 0.00 | 0.00 | 25 | 997.0 |
| 20260503201524 | 73 | 360 | 12.0 | 0.0 | 0.00 | 0.00 | 0.00 | 27 | 997.0 |
| 20260503201019 | 74 | 360 | 13.0 | 0.0 | 0.00 | 0.00 | 0.00 | 27 | 997.0 |
| 20260503200519 | 74 | 360 | 12.0 | 0.0 | 0.00 | 0.00 | 0.00 | 27 | 997.1 |
| 20260503200018 | 74 | 360 | 12.0 | 0.0 | 0.00 | 0.00 | 0.00 | 26 | 997.2 |
| 20260503195516 | 73 | 360 | 13.0 | 0.0 | 0.00 | 0.00 | 0.00 | 27 | 997.3 |
| 20260503195016 | 74 | 360 | 14.0 | 0.0 | 0.00 | 0.00 | 0.00 | 28 | 997.3 |
| 20260503194521 | 74 | 360 | 13.0 | 0.0 | 0.00 | 0.00 | 0.00 | 28 | 997.7 |
| 20260503194014 | 73 | 360 | 12.0 | 0.0 | 0.00 | 0.00 | 0.00 | 29 | 997.7 |
| 20260503193514 | 73 | 360 | 12.0 | 0.0 | 0.00 | 0.00 | 0.00 | 28 | 997.9 |
| 20260503193012 | 73 | 360 | 13.0 | 0.0 | 0.00 | 0.00 | 0.00 | 27 | 998.1 |
| 20260503192512 | 74 | 360 | 12.0 | 0.0 | 0.00 | 0.00 | 0.00 | 26 | 998.2 |
| 20260503192010 | 73 | 360 | 11.0 | 0.0 | 0.00 | 0.00 | 0.00 | 30 | 998.3 |
| 20260503191510 | 73 | 360 | 13.0 | 0.0 | 0.00 | 0.00 | 0.00 | 30 | 998.5 |
| 20260503191013 | 73 | 360 | 12.0 | 0.0 | 0.00 | 0.00 | 0.00 | 30 | 998.4 |
| 20260503190510 | 73 | 360 | 13.0 | 0.0 | 0.00 | 0.00 | 0.00 | 30 | 998.6 |
| 20260503190008 | 72 | 360 | 14.0 | 0.0 | 0.00 | 0.00 | 0.00 | 31 | 998.8 |
| 20260503185513 | 72 | 360 | 13.0 | 0.0 | 0.00 | 0.00 | 0.00 | 31 | 998.8 |
| 20260503185008 | 73 | 360 | 12.0 | 0.0 | 0.00 | 0.00 | 0.00 | 31 | 999.1 |
| 20260503184508 | 72 | 360 | 11.0 | 0.0 | 0.00 | 0.00 | 0.00 | 31 | 999.1 |
| 20260503184006 | 72 | 360 | 11.0 | 0.0 | 0.00 | 0.00 | 0.00 | 31 | 999.3 |
| 20260503183504 | 71 | 360 | 11.0 | 0.0 | 0.00 | 0.00 | 0.00 | 30 | 999.6 |
| 20260503183004 | 71 | 360 | 12.0 | 0.0 | 0.00 | 0.00 | 0.00 | 30 | 999.7 |
| 20260503182507 | 72 | 360 | 12.0 | 0.0 | 0.00 | 0.00 | 0.00 | 30 | 999.8 |
| 20260503182004 | 71 | 360 | 11.0 | 0.0 | 0.00 | 0.00 | 0.00 | 32 | 999.9 |
| 20260503181501 | 71 | 360 | 12.0 | 0.0 | 0.00 | 0.00 | 0.00 | 34 | 1000.1 |
| 20260503180559 | 71 | 360 | 13.0 | 0.0 | 0.00 | 0.00 | 0.00 | 34 | 1000.2 |
| 20260503180058 | 71 | 360 | 13.0 | 0.0 | 0.00 | 0.00 | 0.00 | 31 | 1000.4 |
| 20260503175558 | 71 | 360 | 12.0 | 0.0 | 0.00 | 0.00 | 0.00 | 32 | 1000.3 |
| 20260503175057 | 71 | 360 | 13.0 | 0.0 | 0.00 | 0.00 | 0.00 | 32 | 1000.4 |
| 20260503174610 | 70 | 360 | 12.0 | 0.0 | 0.00 | 0.00 | 0.00 | 33 | 1000.5 |
| 20260503174057 | 71 | 360 | 12.0 | 0.0 | 0.00 | 0.00 | 0.00 | 32 | 1000.5 |
| 20260503173556 | 70 | 360 | 12.0 | 0.0 | 0.00 | 0.00 | 0.00 | 31 | 1000.6 |
| 20260503173125 | 70 | 360 | 12.0 | 0.0 | 0.00 | 0.00 | 0.00 | 32 | 1000.8 |
| 20260503172554 | 70 | 360 | 12.0 | 0.0 | 0.00 | 0.00 | 0.00 | 32 | 1000.9 |
| 20260503172055 | 69 | 360 | 12.0 | 0.0 | 0.00 | 0.00 | 0.00 | 32 | 1000.9 |
| 20260503171551 | 69 | 360 | 12.0 | 0.0 | 0.00 | 0.00 | 0.00 | 33 | 1001.2 |
| 20260503170552 | 69 | 360 | 11.0 | 0.0 | 0.00 | 0.00 | 0.00 | 34 | 1001.2 |
| 20260503150535 | 63 | 360 | 11.0 | 0.0 | 0.00 | 0.00 | 0.00 | 37 | 1003.4 |
| 20260503130506 | 48 | 360 | 1.0 | 0.0 | 0.00 | 0.00 | 0.00 | 57 | 1004.4 |
| 20260503110546 | 35 | 360 | 1.0 | 0.0 | 0.00 | 0.00 | 0.00 | 69 | 1005.1 |
| 20260503081548 | 33 | 360 | 0.0 | 0.0 | 0.00 | 0.00 | 0.00 | 72 | 1005.9 |
| 20260503080534 | 33 | 360 | 0.0 | 0.0 | 0.00 | 0.00 | 0.00 | 68 | 1005.9 |
| 20260503072532 | 33 | 360 | 0.0 | 0.0 | 0.00 | 0.00 | 0.00 | 70 | 1006.0 |
| 20260503072030 | 33 | 360 | 0.0 | 0.0 | 0.00 | 0.00 | 0.00 | 70 | 1006.0 |
| 20260503071553 | 33 | 360 | 0.0 | 0.0 | 0.00 | 0.00 | 0.00 | 69 | 1006.0 |
| 20260503070534 | 34 | 360 | 0.0 | 0.0 | 0.00 | 0.00 | 0.00 | 69 | 1006.0 |
| 20260503055024 | 35 | 360 | 0.0 | 0.0 | 0.00 | 0.00 | 0.00 | 67 | 1006.1 |
| 20260503054533 | 35 | 360 | 0.0 | 0.0 | 0.00 | 0.00 | 0.00 | 67 | 1006.0 |
| 20260503054024 | 35 | 360 | 0.0 | 0.0 | 0.00 | 0.00 | 0.00 | 68 | 1006.0 |
| 20260503053524 | 35 | 360 | 0.0 | 0.0 | 0.00 | 0.00 | 0.00 | 68 | 1006.0 |
| 20260503053023 | 34 | 360 | 0.0 | 0.0 | 0.00 | 0.00 | 0.00 | 67 | 1006.0 |
| 20260503052523 | 34 | 360 | 0.0 | 0.0 | 0.00 | 0.00 | 0.00 | 67 | 1005.9 |
| 20260503052023 | 35 | 360 | 0.0 | 0.0 | 0.00 | 0.00 | 0.00 | 66 | 1006.0 |
| 20260503051529 | 35 | 360 | 0.0 | 0.0 | 0.00 | 0.00 | 0.00 | 66 | 1006.0 |
| 20260503050521 | 35 | 360 | 0.0 | 0.0 | 0.00 | 0.00 | 0.00 | 65 | 1006.0 |
| 20260503050021 | 35 | 360 | 1.0 | 0.0 | 0.00 | 0.00 | 0.00 | 65 | 1006.1 |
| 20260503045520 | 36 | 360 | 1.0 | 0.0 | 0.00 | 0.00 | 0.00 | 64 | 1006.1 |
| 20260503045019 | 36 | 360 | 1.0 | 0.0 | 0.00 | 0.00 | 0.00 | 64 | 1006.1 |
| 20260503044518 | 36 | 360 | 1.0 | 0.0 | 0.00 | 0.00 | 0.00 | 63 | 1006.1 |
| 20260503044016 | 37 | 360 | 1.0 | 0.0 | 0.00 | 0.00 | 0.00 | 63 | 1006.2 |
| 20260503043516 | 37 | 360 | 1.0 | 0.0 | 0.00 | 0.00 | 0.00 | 63 | 1006.2 |
| 20260503043021 | 37 | 360 | 2.0 | 0.0 | 0.00 | 0.00 | 0.00 | 62 | 1006.2 |
| 20260503042515 | 37 | 360 | 2.0 | 0.0 | 0.00 | 0.00 | 0.00 | 61 | 1006.2 |
| 20260503042014 | 37 | 360 | 1.0 | 0.0 | 0.00 | 0.00 | 0.00 | 60 | 1006.2 |
| 20260503041519 | 38 | 360 | 0.0 | 0.0 | 0.00 | 0.00 | 0.00 | 60 | 1006.2 |
| 20260503040510 | 38 | 360 | 0.0 | 0.0 | 0.00 | 0.00 | 0.00 | 58 | 1006.2 |
| 20260503040015 | 39 | 360 | 0.0 | 0.0 | 0.00 | 0.00 | 0.00 | 57 | 1006.2 |
| 20260503035510 | 39 | 360 | 0.0 | 0.0 | 0.00 | 0.00 | 0.00 | 57 | 1006.2 |
| 20260503035008 | 40 | 360 | 0.0 | 0.0 | 0.00 | 0.00 | 0.00 | 55 | 1006.2 |
| 20260503034507 | 40 | 272 | 0.0 | 0.0 | 0.00 | 0.00 | 0.00 | 54 | 1006.2 |
| 20260503034005 | 41 | 360 | 0.0 | 0.0 | 0.00 | 0.00 | 0.00 | 52 | 1006.2 |
| 20260503033504 | 43 | 360 | 1.0 | 0.0 | 0.00 | 0.00 | 0.00 | 52 | 1006.1 |
| 20260503033004 | 43 | 360 | 2.0 | 0.0 | 0.00 | 0.00 | 0.00 | 52 | 1006.1 |
| 20260503032502 | 44 | 360 | 3.0 | 0.0 | 0.00 | 0.00 | 0.00 | 52 | 1006.1 |
| 20260503032002 | 44 | 360 | 4.0 | 0.0 | 0.00 | 0.00 | 0.00 | 53 | 1006.1 |
| 20260503031501 | 44 | 360 | 3.0 | 0.0 | 0.00 | 0.00 | 0.00 | 52 | 1006.1 |
| 20260503030558 | 46 | 360 | 2.0 | 0.0 | 0.00 | 0.00 | 0.00 | 48 | 1006.0 |
| 20260503030058 | 47 | 360 | 1.0 | 0.0 | 0.00 | 0.00 | 0.00 | 45 | 1006.0 |
| 20260503025559 | 49 | 360 | 0.0 | 0.0 | 0.00 | 0.00 | 0.00 | 45 | 1006.0 |
| 20260503025102 | 51 | 360 | 0.0 | 0.0 | 0.00 | 0.00 | 0.00 | 44 | 1006.0 |
| 20260503024612 | 52 | 360 | 0.0 | 0.0 | 0.00 | 0.00 | 0.00 | 43 | 1005.9 |
| 20260503024058 | 53 | 360 | 0.0 | 0.0 | 0.00 | 0.00 | 0.00 | 42 | 1005.8 |